sat.trackr.live / text

‹ back to catalog

SBIRS GEO-3 (USA 282)

NORAD 43162 · 2018-009A

PAYLOAD ACTIVE UNKNOWN

§ Identity

Operator
Country
US
Launch date
2018-01-20
Launch site
AFETR
Launch vehicle
Mass (kg)
RCS (m²)

Purposes: comms

External: N2YO · Heavens-Above · Gunter

§ Orbital elements

Epoch: 2026-09-20T05:11:44.591712Z

Period
1,436.08 min
Inclination
2.2627°
Eccentricity
0.0001930
Mean motion
1.00272853 rev/d
Perigee alt
35,778.2 km
Apogee alt
35,794.4 km
Semi-major
42,164.4 km
B*
0.0000e+0
RAAN
16.3017°
Arg perigee
157.2520°
Mean anomaly
104.1109°
Rev number
3,179

§ Raw data

SBIRS GEO-3 (USA 282)1 43162U 18009A   26263.21648833  .00000126  00000+0  00000+0 0  99952 43162   2.2627  16.3017 0001930 157.2520 104.1109  1.00272853 31794

JSON: /api/v1/satellites/43162 · /tle

For live sub-satellite position, see the globe view (requires WebGL).

§ Visibility from observer

Set your observer location to see the next 7 days of passes ≥ 10°. The values pass through the URL so the page stays shareable.

No JS? Fill the form by hand. The geolocation button needs JavaScript.